Regional Weather Roundup
Issued by NWS

Home | Current Version | Previous Version | Graphics & Text | Print | Product List | Glossary On
Versions: 1 2 3 4 5 6 7 8 9 10 11 12 13 14 15 16 17 18 19 20 21 22 23 24 25 26 27 28 29 30 31 32 33 34 35 36 37 38 39 40 41 42 43 44 45 46 47 48 49 50
000
ASUS43 KBIS 211320
RWRND

NORTH DAKOTA REGIONAL WEATHER ROUNDUP
NATIONAL WEATHER SERVICE BISMARCK ND
700 AM CST FRI NOV 21 2014

NOTE: "FAIR" INDICATES FEW OR NO CLOUDS BELOW 12,000 FEET WITH NO
SIGNIFICANT WEATHER AND/OR OBSTRUCTIONS TO VISIBILITY.


NDZ001>003-009>011-017-211400-
NORTHWEST NORTH DAKOTA

CITY           SKY/WX    TMP DP  RH WIND       PRES   REMARKS
WILLISTON      CLEAR     21  18  88 SW8       29.68F WCI  11
MINOT          FAIR      30  20  66 SW15      29.63F WCI  19
MINOT AFB      CLEAR     33  24  72 SW18      29.62F
$$

NDZ018>021-031>035-040>046-211400-
SOUTHWEST NORTH DAKOTA

CITY           SKY/WX    TMP DP  RH WIND       PRES   REMARKS
BISMARCK       PTCLDY    14  12  92 SE6       29.78F WCI   5
DICKINSON      PTCLDY    31  22  69 SW9       29.71S
GARRISON         N/A     23  21  92 S7        29.69F WCI  15
HETTINGER ARPT PTCLDY    26  18  71 W8        29.77F WCI  18
$$

NDZ004>008-012>016-024-026-027-054-211400-
NORTHEAST NORTH DAKOTA

CITY           SKY/WX    TMP DP  RH WIND       PRES   REMARKS
GRAND FORKS    PTCLDY    13   7  77 S21G28    29.83F WCI  -5
GRND FRKS AFB  PTCLDY    13   8  83 S15       29.80F WCI  -3
DEVILS LAKE    CLEAR     19  10  68 S14       29.70F WCI   6
$$

NDZ022-023-025-028>030-036>039-047>053-211400-
SOUTHEAST NORTH DAKOTA

CITY           SKY/WX    TMP DP  RH WIND       PRES   REMARKS
FARGO          CLEAR     14   8  77 S18G26    29.91F WCI  -3
JAMESTOWN      PTCLDY    14  11  87 S13       29.79F WCI   0
$$



USA.gov is the U.S. government's official web portal to all federal, state and local government web resources and services.